Flag for U.S.A. Weather past 2 weeks in Baltimore, Maryland, U.S.A.

Now
84 °F

Broken clouds.


Feels Like: 83 °F
Forecast: 67 / 82 °F
Wind: 17 mph from West

Location: Baltimore-Washington International Airport

Current Time: Jul 28, 2014 at 4:40:30 PM

Latest Report: Jul 28, 2014 at 3:54 PM


Visibility: 10 mi

Pressure: 29.65 "Hg

Humidity: 38%

Dew point: 56 °F

Location of BaltimoreLocation

Historic Weather in Baltimore — Graph

°F

Baltimore temperature yesterday

Maximum temperature yesterday: 87 °F (at 3:54 PM)
Minimum temperature yesterday: 73 °F (at 3:54 AM)
Average temperature yesterday: 79 °F

Past Weeks' High & Low Weather Summary

 TemperatureHumidityPressure
High93 °F (Jul 23, 4:54 PM)97% (Jul 14, 3:54 AM)30.23 "Hg (Jul 14, 3:54 AM)
Low57 °F (Jul 25, 5:54 AM)33% (Jul 28, 2:54 PM)29.57 "Hg (Jul 28, 4:54 AM)
Average75 °F70%29.96 "Hg
* Reported Jul 13 2:54 PM — Jul 28 2:54 PM, Baltimore, Weather by CustomWeather, © 2014

Note: Actual official high and low records may vary slightly from our data, if they occured in-between our weather recording intervals... More about our weather records

Advertising

Baltimore weather history for previous 24 hours

 ConditionsComfort  
Time TempWeatherWind HumidityBarometerVisibility
2:54 PM
Jul 28
86 °FScattered clouds.20 mph33%29.64 "Hg10 mi
1:54 PM84 °FScattered clouds.29 mph37%29.63 "Hg10 mi
12:54 PM84 °FScattered clouds.18 mph43%29.64 "Hg10 mi
11:54 AM84 °FScattered clouds.18 mph41%29.64 "Hg10 mi
10:54 AM81 °FScattered clouds.21 mph49%29.63 "Hg10 mi
9:54 AM80 °FScattered clouds.18 mph54%29.62 "Hg10 mi
8:54 AM78 °FScattered clouds.9 mph66%29.61 "Hg10 mi
7:54 AM75 °FScattered clouds.7 mph85%29.59 "Hg10 mi
6:54 AM71 °FPassing clouds.3 mph90%29.59 "Hg10 mi
5:54 AM70 °FPassing clouds.3 mph93%29.57 "Hg10 mi
4:54 AM71 °FPassing clouds.3 mph93%29.57 "Hg10 mi
3:54 AM70 °FPartly cloudy.No wind97%29.58 "Hg9 mi
2:54 AM70 °FMostly cloudy.No wind93%29.58 "Hg10 mi
1:54 AM71 °FPartly cloudy.No wind90%29.59 "Hg10 mi
1:04 AM75 °FMostly cloudy.No wind94%29.62 "Hg9 mi
12:54 AM75 °FMostly cloudy.No wind94%29.60 "Hg9 mi
12:03 AM75 °FRain. Fog.6 mph89%29.64 "Hg2 mi
12:01 AM75 °FRain. Fog.5 mph89%29.64 "Hg3 mi
10:54 PM
Jul 27
78 °FPassing clouds.5 mph79%29.65 "Hg10 mi
9:54 PM79 °FPartly cloudy.5 mph77%29.66 "Hg10 mi
8:54 PM79 °FPartly sunny.3 mph74%29.67 "Hg10 mi
7:54 PM80 °FBroken clouds.7 mph71%29.68 "Hg10 mi
6:54 PM83 °FBroken clouds.8 mph63%29.67 "Hg10 mi
5:54 PM83 °FBroken clouds.9 mph65%29.69 "Hg10 mi
4:54 PM85 °FPartly sunny.10 mph61%29.71 "Hg10 mi
Weather by CustomWeather, © 2014

See weather overviewHow to use our weather pages